[[{"header":{"parameterUnit":"m.s-1","parameterCategory":1,"la1":30.2992,"la2":30.254,"lo1":-89.0895,"lo2":-89.0443,"dy":0.0025,"dx":0.0025,"nx":19,"ny":19,"refTime":"2026-03-16T03:00:00:Z","depth":0,"parameterNumber":2,"parameterNumberName":"U-component_of_WINDS"},"data":[0,0,0,3.4164,3.4165,3.4213,3.4213,3.4286,3.4287,0,0,0,0,0,0,0,0,0,0,0,3.4157,3.4158,3.4164,3.4165,3.4213,3.4213,3.4286,3.4287,0,0,0,0,0,0,0,0,0,0,0,3.4157,3.4158,3.4159,3.4165,3.4213,3.4213,3.4286,3.4246,0,0,0,0,0,0,0,0,0,0,3.4197,3.4198,3.4158,3.4159,3.4166,3.4213,3.4213,3.4243,3.4248,3.427,0,3.4292,0,3.4291,3.4293,3.4293,0,0,0,3.4159,3.4195,3.4201,3.4159,3.4166,3.4213,3.419,3.4246,3.4251,3.4277,3.4293,3.4296,3.4292,3.4294,3.4294,3.4444,3.4445,0,0,3.4156,3.417,3.4197,3.4205,3.4199,3.4188,3.4191,3.4249,3.4268,3.4293,3.4297,3.4294,3.4294,3.4295,3.4443,3.4445,0,0,0,3.4153,3.4168,3.4172,3.4202,3.421,3.419,3.4193,3.4265,3.4265,3.4298,3.4295,3.4295,3.4296,3.4442,3.4444,3.4506,0,0,0,3.4151,3.4166,3.4172,3.418,3.4209,3.4238,3.4208,3.4261,3.4268,3.4294,3.4295,3.4297,3.4441,3.4443,3.4502,3.4533,0,0,0,3.4151,3.4166,3.4176,3.4181,3.4202,3.4237,3.424,3.4262,3.4266,3.4293,3.4297,3.4441,3.4443,3.4498,3.4527,3.4577,0,0,0,3.4155,3.4229,3.4177,3.4258,3.4202,3.4276,3.424,3.4293,3.4325,3.4295,3.4441,3.4444,3.4497,3.4523,3.4573,3.462,3.4642,0,0,3.4256,3.4242,3.4288,3.4243,3.433,3.4267,3.4362,3.4377,3.4367,3.4419,3.4423,3.4503,3.4526,3.4576,3.4758,3.4775,0,0,0,3.4325,3.4358,3.4378,3.4409,3.4424,3.4439,3.4438,3.4445,3.4488,3.4397,3.4535,3.4548,3.4576,3.4598,3.4613,3.4637,3.4455,3.4455,3.4454,3.4484,3.4469,3.4546,3.4537,3.4568,3.4568,3.4591,3.4599,3.4573,3.4607,3.4621,3.4734,3.4761,3.4771,3.4796,3.4646,3.4646,3.4647,3.4647,3.4629,3.4674,3.4642,3.4704,3.4688,3.474,3.4744,3.4724,3.477,3.4721,3.4745,3.4692,3.4791,3.4812,3.4651,3.4651,3.465,3.465,3.4649,3.4731,3.475,3.4758,3.4803,3.4839,3.4828,3.4875,3.4858,3.4842,3.4867,3.4881,3.488,3.4876,3.4875,3.4876,3.4876,3.4876,3.4877,3.4877,3.4833,3.484,3.4882,3.4906,3.4925,3.4947,3.4951,3.4968,3.4984,3.4968,3.4968,3.494,3.4804,3.477,3.4883,3.4882,3.4881,3.488,3.488,3.4984,3.4948,3.5013,3.5032,3.506,3.5098,3.5077,3.5116,3.5128,3.5152,3.5119,3.5022,3.5006,3.4994,3.4965,3.5122,3.5122,3.5123,3.5123,3.507,3.5061,3.5124,3.5156,3.5186,3.5175,3.5249,3.5253,3.5251,3.5258,3.5233,3.5195,3.5184,3.5174,3.5158,3.5131,3.5327,3.5327,3.5327,3.5162,3.5156,3.5221,3.522,3.5242,3.5261,3.533,3.5368,3.5358,3.5335,3.5263,3.5255,3.5192,3.5172,3.5145,3.5122,3.5072,0,0]},{"header":{"parameterUnit":"m.s-1","parameterCategory":1,"la1":30.2992,"la2":30.254,"lo1":-89.0895,"lo2":-89.0443,"dy":0.0025,"dx":0.0025,"nx":19,"ny":19,"refTime":"2026-03-16T03:00:00:Z","depth":0,"parameterNumber":3,"parameterNumberName":"V-component_of_WINDS"},"data":[0,0,0,-8.2409,-8.2415,-8.2681,-8.2682,-8.3029,-8.3032,0,0,0,0,0,0,0,0,0,0,0,-8.2338,-8.234,-8.2409,-8.2416,-8.2681,-8.2682,-8.3029,-8.3032,0,0,0,0,0,0,0,0,0,0,0,-8.2337,-8.234,-8.2343,-8.2417,-8.2681,-8.2682,-8.3028,-8.2824,0,0,0,0,0,0,0,0,0,0,-8.2564,-8.2507,-8.2339,-8.2343,-8.2418,-8.268,-8.2682,-8.2814,-8.2837,-8.2913,0,-8.2985,0,-8.3015,-8.3056,-8.3058,0,0,0,-8.2409,-8.2488,-8.2553,-8.2344,-8.2421,-8.268,-8.2559,-8.2827,-8.2852,-8.2943,-8.299,-8.3003,-8.3021,-8.3059,-8.3061,-8.3528,-8.353,0,0,-8.2394,-8.2389,-8.2535,-8.257,-8.2533,-8.2551,-8.2568,-8.2842,-8.2892,-8.2991,-8.3011,-8.3026,-8.3061,-8.3064,-8.3526,-8.3529,0,0,0,-8.2357,-8.2379,-8.2437,-8.2556,-8.2604,-8.2559,-8.2578,-8.288,-8.2899,-8.3014,-8.303,-8.3063,-8.3068,-8.3523,-8.3527,-8.3645,0,0,0,-8.2347,-8.2357,-8.2431,-8.243,-8.2599,-8.2746,-8.261,-8.288,-8.2911,-8.3029,-8.3063,-8.3071,-8.352,-8.3525,-8.3636,-8.3701,0,0,0,-8.2318,-8.2353,-8.2395,-8.2429,-8.2544,-8.2741,-8.2776,-8.2887,-8.2922,-8.3058,-8.3072,-8.3519,-8.3524,-8.3628,-8.3688,-8.3823,0,0,0,-8.2284,-8.2495,-8.2396,-8.2638,-8.2542,-8.2813,-8.2775,-8.2977,-8.3108,-8.3065,-8.3521,-8.3527,-8.3625,-8.368,-8.3814,-8.3936,-8.3986,0,0,-8.2546,-8.2526,-8.2668,-8.2588,-8.2876,-8.2773,-8.3078,-8.3202,-8.3218,-8.3423,-8.3435,-8.3639,-8.3687,-8.3821,-8.427,-8.431,0,0,0,-8.2749,-8.2852,-8.2929,-8.3055,-8.3157,-8.3249,-8.3327,-8.3373,-8.3548,-8.3324,-8.3724,-8.3753,-8.3832,-8.389,-8.3924,-8.3992,-8.3553,-8.3553,-8.3552,-8.3112,-8.3124,-8.3361,-8.3405,-8.3527,-8.3607,-8.3707,-8.3782,-8.3756,-8.3851,-8.3912,-8.4183,-8.4251,-8.4276,-8.4347,-8.3977,-8.3977,-8.3978,-8.3978,-8.3498,-8.3644,-8.3608,-8.3823,-8.3834,-8.4015,-8.4099,-8.4075,-8.4243,-8.4138,-8.4208,-8.4091,-8.432,-8.4382,-8.3987,-8.3985,-8.3984,-8.3983,-8.3983,-8.3736,-8.3809,-8.3863,-8.4046,-8.4186,-8.4223,-8.4387,-8.439,-8.4394,-8.4463,-8.4527,-8.4526,-8.4524,-8.4494,-8.4495,-8.4496,-8.4497,-8.4497,-8.4498,-8.3962,-8.402,-8.4159,-8.4285,-8.4367,-8.4474,-8.4556,-8.4636,-8.4724,-8.4713,-8.4714,-8.4679,-8.434,-8.4255,-8.4513,-8.451,-8.4508,-8.4507,-8.4506,-8.4348,-8.4262,-8.4477,-8.4559,-8.4707,-8.4845,-8.4848,-8.501,-8.5076,-8.5156,-8.5107,-8.4856,-8.4835,-8.4808,-8.4737,-8.5104,-8.5104,-8.5104,-8.5104,-8.4549,-8.4539,-8.476,-8.4891,-8.5019,-8.5044,-8.5284,-8.535,-8.5403,-8.5445,-8.5392,-8.5299,-8.5271,-8.5266,-8.5229,-8.5163,-8.563,-8.5631,-8.5631,-8.4787,-8.479,-8.4995,-8.5049,-8.5165,-8.5264,-8.549,-8.564,-8.5682,-8.5652,-8.5477,-8.5455,-8.5304,-8.5255,-8.522,-8.5162,-8.5041,0,0]}]]